FENGYUN 3F

Last updated on Wed Sep 23 2026 00:03:10 GMT+0000 (Coordinated Universal Time)

1 57490U 23111A 26265.56817480 .00000007 00000+0 23605-4 0 9999 2 57490 98.6749 333.7184 0001313 112.2118 247.9198 14.19951912162688
UTC large
Height (km)
Speed (km/s)
/
Latitude / Longitude
Inclination (degrees)
Orbital Period (minutes)
Azimuth
Elevation
Range (km)
Doppler Factor

Next 0 passes for location: London (51.5072 / 0.1276)

No passes found over London.
FENGYUN 3F